Location: New Canada
(47.1017°N, 68.5042°W)
Time: 16:41:29
(UTC+00:00)

KKS-1 - Pass Details

Date: 27 April 2024
Orbit: 628 x 639 km, 98.1° (Epoch: 21 May)

Event Time Altitude Azimuth Distance (km) Brightness Sun altitude
Rises 05:08:21 0° 1° (N) 2,958 ? -28.3°
Reaches altitude 10° 05:11:02 10° 345° (NNW) 2,043 ? -28.3°
Enters shadow 05:14:15 20° 298° (WNW) 1,480 ? -28.2°
